Location: Bonneuil
(46.1010°N, 2.9693°E)
Time: 15:37:19
(UTC+00:00)

USA 186 - Pass Details

Date: 09 April 2020
Orbit: 263 x 446 km, 96.9° (Epoch: 25 May)

Event Time Altitude Azimuth Distance (km) Brightness Sun altitude
Rises 19:31:52 0° 176° (S) 2,413 5.3 -11.3°
Reaches altitude 10° 19:33:57 10° 181° (S) 1,528 4.4 -11.7°
Maximum altitude 19:37:10 53° 260° (W) 517 2.5 -12.2°
Drops below altitude 10° 19:40:14 10° 339° (NNW) 1,456 5.2 -12.7°
Sets 19:42:11 0° 344° (NNW) 2,285 6.2 -13.0°
